Location: Maccacari
(45.1333°N, 11.1333°E)
Time: 20:04:46
(UTC+00:00)

Tiros 1 despin weight - Pass Details

Date: 29 January 2021
Orbit: 593 x 642 km, 48.2° (Epoch: 26 February)

Event Time Altitude Azimuth Distance (km) Brightness Sun altitude
Rises 13:12:44 0° 260° (W) 2,904 ? 22.8°
Reaches altitude 10° 13:15:05 10° 262° (W) 1,990 ? 22.6°
Maximum altitude 13:19:39 70° 347° (NNW) 658 ? 22.2°
Drops below altitude 10° 13:24:09 10° 71° (ENE) 1,962 ? 21.8°
Sets 13:26:26 0° 74° (ENE) 2,859 ? 21.6°
